Vertical_Velocity
-2 -2 -2 -2 -2 -2 -2 -2 -3 -3 -3 -2 -2 -3 -4 -6 -8 -8 -8 -8 -7 -6 -5 -4 -2 -2 -2 -2 -1 -1 -1 -2 -1 -0 0 0 -0 -0 -0 -1 -1 -2 -2 -2 -1 -1 0 2 2 1 -1 -2 -1 -1 0 2 3 5 5 5 3 0 -1 -0 2 3 4 5 4
-2 -2 -3 -3 -3 -3 -4 -4 -4 -5 -5 -4 -3 -4 -6 -8 -9 -9 -8 -8 -7 -6 -6 -6 -5 -5 -5 -5 -4 -4 -3 -3 -2 -2 -1 -1 -1 -1 -1 -2 -2 -3 -3 -3 -1 1 2 2 2 1 0 -1 -1 -1 -0 1 4 5 4 3 1 0 0 2 4 5 5 5 4
-2 -3 -4 -4 -5 -5 -5 -5 -5 -5 -4 -4 -4 -5 -7 -10 -9 -9 -8 -7 -6 -6 -6 -6 -6 -6 -6 -6 -6 -5 -5 -4 -4 -3 -3 -2 -2 -2 -2 -2 -2 -2 -1 -1 2 4 4 1 1 0 -0 -1 -1 -1 -1 0 3 5 5 2 1 1 3 4 5 6 6 5 3
-3 -4 -4 -5 -5 -5 -5 -5 -5 -4 -4 -3 -4 -6 -8 -10 -10 -9 -8 -7 -7 -7 -7 -6 -6 -6 -6 -6 -6 -6 -6 -5 -5 -4 -4 -3 -2 -2 -2 -1 -1 -1 -1 -1 2 2 -0 -1 -1 -1 -1 -1 -1 -1 0 3 7 10 9 3 1 2 4 5 6 5 5 4 2
-4 -4 -4 -5 -6 -6 -6 -6 -5 -4 -3 -3 -4 -7 -10 -11 -11 -10 -10 -9 -8 -8 -7 -7 -6 -6 -6 -6 -6 -6 -6 -6 -6 -5 -4 -3 -2 -2 -2 -2 -2 -2 -2 -3 -3 -3 -2 -1 -1 -0 0 1 2 5 8 12 13 16 14 1 2 3 5 6 6 5 3 2 1
-4 -5 -6 -6 -7 -7 -7 -6 -5 -4 -3 -4 -5 -8 -10 -12 -12 -11 -10 -9 -8 -8 -8 -7 -7 -7 -7 -7 -7 -7 -7 -7 -6 -5 -4 -3 -2 -2 -3 -3 -2 -2 -2 -3 -2 -2 -1 -1 0 1 3 5 9 13 16 17 16 16 12 1 4 6 7 8 7 6 4 2 1
-4 -5 -6 -6 -7 -7 -6 -6 -5 -4 -4 -5 -6 -8 -10 -11 -11 -10 -10 -9 -9 -8 -8 -8 -8 -7 -7 -7 -7 -7 -7 -7 -6 -5 -4 -2 -2 -2 -3 -3 -2 -2 -2 -2 -2 -1 -1 -0 1 3 5 8 13 16 18 18 18 12 6 3 7 9 10 11 8 6 4 3 2
-5 -5 -5 -6 -6 -7 -6 -6 -5 -5 -6 -6 -7 -8 -9 -10 -10 -9 -9 -9 -8 -8 -8 -8 -7 -7 -7 -6 -6 -6 -6 -6 -5 -4 -3 -2 -1 -2 -3 -3 -2 -2 -2 -1 -1 0 1 2 3 5 7 11 14 16 16 14 14 11 8 7 12 14 14 11 8 6 4 4 2
-5 -5 -5 -6 -7 -7 -7 -6 -6 -6 -6 -6 -7 -8 -9 -9 -9 -8 -8 -8 -7 -7 -7 -7 -7 -6 -6 -6 -5 -4 -4 -4 -4 -4 -4 -3 -2 -2 -3 -3 -3 -2 -1 1 2 4 5 6 7 9 11 13 16 18 18 16 19 18 14 9 12 12 11 7 6 5 4 4 2
-4 -5 -5 -6 -7 -8 -7 -7 -7 -6 -6 -6 -6 -7 -8 -9 -8 -8 -7 -7 -7 -6 -6 -6 -6 -6 -5 -4 -4 -3 -3 -3 -3 -4 -4 -3 -2 -2 -2 -1 -1 0 2 3 4 4 5 6 9 11 13 16 19 21 22 23 25 23 17 8 7 6 6 4 4 4 4 3 3
-4 -5 -6 -7 -7 -7 -7 -7 -7 -6 -6 -6 -6 -6 -8 -8 -9 -8 -8 -7 -7 -7 -6 -6 -6 -5 -5 -4 -4 -3 -3 -2 -3 -3 -3 -2 -1 -0 1 2 3 3 4 4 3 3 5 8 9 10 13 17 19 20 20 21 21 19 14 8 5 3 2 2 3 4 4 4 3
-5 -6 -7 -7 -7 -7 -7 -6 -6 -5 -5 -4 -5 -6 -7 -8 -8 -8 -9 -8 -8 -7 -7 -6 -6 -6 -5 -4 -4 -4 -3 -2 -3 -2 -1 -0 1 2 3 4 4 4 4 3 4 5 7 8 8 9 12 15 16 16 16 16 14 12 10 8 5 3 2 3 3 4 3 3 1
-6 -6 -7 -7 -7 -7 -7 -6 -5 -4 -4 -3 -4 -5 -6 -7 -8 -8 -9 -9 -8 -8 -8 -7 -6 -6 -5 -5 -5 -5 -4 -3 -2 -1 1 2 2 3 3 4 4 4 4 5 6 7 8 7 7 10 13 16 15 14 13 12 10 8 7 6 5 5 5 4 4 3 2 2 1
-6 -6 -6 -6 -6 -7 -7 -6 -5 -4 -3 -2 -3 -4 -5 -6 -7 -8 -8 -9 -8 -8 -8 -7 -6 -5 -5 -4 -4 -4 -4 -4 -3 -1 0 2 3 3 3 3 4 6 8 10 10 8 7 6 7 10 13 15 12 10 9 7 6 6 5 5 6 6 5 4 3 3 2 3 3
-6 -5 -5 -6 -6 -7 -7 -6 -5 -4 -2 -1 -2 -3 -4 -5 -6 -6 -7 -8 -7 -7 -7 -6 -5 -4 -3 -3 -2 -2 -3 -3 -3 -3 -2 -1 1 2 3 3 6 10 13 14 12 9 6 4 6 8 10 10 8 7 6 6 6 6 5 5 5 5 4 4 3 3 3 4 4
-5 -4 -4 -5 -6 -7 -7 -7 -6 -5 -3 -1 -1 -2 -3 -4 -5 -6 -6 -6 -6 -6 -5 -4 -3 -3 -2 -1 -1 -1 -1 -1 -2 -2 -3 -2 0 2 3 4 6 9 12 12 11 9 7 6 7 8 8 7 6 6 6 6 6 6 5 4 4 4 3 3 3 3 3 3 3
-5 -4 -4 -4 -5 -6 -6 -7 -7 -6 -5 -3 -1 -1 -1 -2 -3 -4 -5 -5 -5 -5 -4 -3 -3 -2 -2 -1 -1 -0 0 0 0 -0 -0 1 2 4 5 5 5 6 8 10 9 10 10 11 10 9 8 6 6 6 6 6 5 4 3 3 3 2 2 2 2 2 2 2 2
-4 -4 -4 -3 -4 -4 -6 -7 -7 -7 -6 -4 -3 -2 -1 -1 -2 -3 -4 -4 -4 -4 -4 -3 -3 -3 -2 -2 -1 -1 -0 1 1 1 2 3 4 5 6 5 4 5 6 7 8 8 9 10 10 8 6 5 5 5 4 4 3 2 2 2 2 2 2 1 1 1 1 1 3
-4 -4 -3 -2 -2 -3 -4 -6 -6 -7 -7 -6 -5 -3 -2 -1 -2 -2 -2 -2 -3 -3 -3 -3 -3 -2 -2 -3 -3 -2 -2 -1 -0 1 2 4 5 5 5 5 5 5 6 6 6 6 7 8 7 6 5 4 4 3 3 2 2 2 1 1 1 1 1 1 1 1 1 1 3
-3 -3 -2 -2 -2 -2 -3 -4 -5 -6 -7 -7 -6 -5 -4 -3 -2 -1 -1 -1 -2 -2 -2 -2 -2 -2 -2 -2 -2 -2 -2 -2 -1 0 2 4 5 5 5 5 6 6 5 5 4 4 5 6 5 4 4 3 2 2 1 1 1 1 1 1 1 1 1 1 1 1 1 1 1
-2 -2 -2 -2 -2 -2 -2 -3 -4 -5 -6 -6 -6 -5 -4 -4 -3 -2 -2 -1 -1 -1 -1 -1 -1 -0 -0 -0 -1 -1 -1 -2 -1 1 3 4 5 5 5 5 5 5 4 2 1 2 2 3 3 2 2 1 1 0 0 -0 -0 -0 0 0 0 0 0 0 0 0 0 0 -0
-1 -1 -2 -2 -2 -3 -3 -4 -4 -5 -5 -5 -5 -4 -4 -4 -4 -4 -4 -3 -2 -1 -0 -0 -0 0 0 1 0 0 0 -0 1 2 3 4 4 4 3 3 3 3 2 0 -0 -0 0 1 1 1 0 -0 -0 -0 -1 -1 -1 -1 -1 -1 -1 -0 -0 -0 -1 -1 -1 -1 -1
-1 -1 -2 -2 -3 -4 -4 -4 -4 -4 -4 -4 -3 -3 -3 -3 -4 -4 -5 -5 -4 -3 -2 -2 -2 -1 -1 -0 -0 -0 -0 0 1 1 2 2 1 1 1 1 2 2 2 0 -1 -1 -1 -1 -1 -1 -1 -1 -0 -0 0 0 0 0 0 0 0 0 1 2 1 0 -0 -0 -0
-1 -1 -2 -2 -3 -4 -4 -5 -4 -3 -3 -2 -2 -2 -2 -2 -3 -4 -4 -4 -4 -4 -4 -4 -4 -3 -3 -2 -2 -2 -1 -1 -1 -0 -0 -0 -0 -0 0 1 1 2 2 1 -0 -1 -2 -2 -2 -2 -2 -1 0 1 1 1 1 2 2 2 2 2 2 2 3 4 5 2 3
-1 -1 -2 -2 -3 -3 -4 -4 -3 -3 -2 -2 -2 -2 -2 -2 -2 -2 -2 -2 -2 -2 -2 -3 -3 -3 -3 -3 -3 -3 -2 -2 -1 -1 -1 -1 -1 -1 -0 0 1 1 1 1 -0 -1 -2 -2 -2 -2 -2 -2 -1 -0 -0 0 1 1 1 1 2 1 1 1 1 2 2 1 1
-2 -2 -2 -2 -2 -3 -3 -3 -3 -2 -2 -2 -2 -3 -2 -2 -2 -2 -1 -1 -1 -1 -1 -1 -1 -2 -2 -2 -2 -2 -2 -1 -1 -1 -1 -2 -2 -1 -0 2 3 3 3 3 2 2 2 2 1 -0 -1 -2 -1 -0 0 0 1 0 0 0 1 1 0 0 0 0 0 0 0
-2 -2 -2 -2 -2 -2 -3 -3 -3 -2 -2 -2 -2 -2 -3 -3 -3 -2 -1 -0 -0 -0 -0 -0 -0 -0 -1 -1 -1 -1 -1 -1 -1 -1 -1 -2 -2 0 3 7 9 10 10 10 10 12 13 14 14 11 6 -0 -2 -1 0 1 1 1 0 0 1 1 1 1 1 1 1 1 0
-2 -2 -2 -2 -2 -2 -3 -3 -2 -2 -2 -1 -2 -2 -3 -4 -3 -2 -1 -1 -1 -0 -0 0 0 0 -0 -0 0 0 0 0 0 -0 -0 -1 -1 -0 2 5 8 9 10 11 13 14 16 18 21 20 14 4 -1 -2 -0 1 2 3 3 2 1 1 1 1 0 0 0 1 1
-2 -2 -2 -3 -3 -3 -3 -3 -2 -1 -1 -1 -2 -2 -3 -4 -3 -2 -2 -1 -1 -1 -0 -0 -1 -1 -1 0 1 1 1 2 2 1 1 0 -0 -1 -1 -1 -1 -0 1 2 4 5 7 9 12 12 9 1 -1 -1 0 1 4 6 6 4 1 -0 -0 -0 -0 2 4 7 8
-3 -3 -3 -3 -3 -3 -3 -2 -1 -1 -1 -1 -2 -3 -3 -4 -3 -2 -1 -1 -1 -1 -1 -2 -3 -2 -1 -0 0 0 1 1 2 2 2 2 1 1 -0 -1 -2 -2 -2 -3 -3 -2 -1 -0 0 0 -0 -1 -0 -0 -0 -0 1 3 4 3 1 -0 0 1 4 7 9 10 10
-2 -3 -3 -3 -4 -3 -3 -2 -1 -1 -1 -1 -2 -2 -3 -3 -2 -1 0 1 0 -0 -2 -3 -4 -3 -2 -2 -1 -1 -0 -0 -0 0 1 1 1 1 0 0 -0 -1 -1 -2 -2 -2 -2 -2 -2 -2 -1 -1 -1 -1 -1 -1 1 3 5 6 5 4 4 6 8 8 7 5 3
-2 -3 -3 -3 -3 -3 -2 -2 -2 -2 -2 -2 -2 -2 -1 -1 -0 1 1 2 1 0 -1 -2 -2 -1 -1 -2 -1 -1 -1 -2 -1 -1 -0 -0 -0 -0 -0 -0 -0 0 0 -0 -1 -1 -1 -1 -1 -1 -1 -1 -1 -1 -0 0 2 5 7 8 8 8 8 8 6 5 3 1 0
-3 -3 -3 -3 -3 -2 -2 -2 -2 -2 -2 -2 -2 -1 -0 0 1 1 2 2 2 1 1 0 1 1 1 1 1 0 -0 -1 -1 -1 -1 -1 -1 -1 -1 -1 -0 0 1 1 0 0 -0 0 -0 -0 -1 -1 -0 0 1 1 1 1 2 2 2 2 2 2 1 1 0 0 0
-3 -3 -3 -2 -2 -2 -2 -1 -2 -2 -2 -2 -1 -1 -0 -0 -0 0 1 1 1 1 1 1 2 3 3 4 3 3 3 2 1 1 0 0 -0 -1 -1 -1 -0 1 1 1 1 1 1 1 1 1 0 -0 -0 0 0 -0 -1 -1 -1 -1 -0 0 1 1 1 2 2 2 2
-2 -2 -2 -2 -1 -1 -1 -1 -1 -2 -2 -2 -2 -1 -1 -1 -1 -1 -0 0 0 -0 0 1 1 2 3 4 4 5 5 4 4 3 2 2 2 1 1 1 1 1 1 1 1 2 2 2 2 1 1 0 0 -0 -0 -0 -0 -0 -0 -0 -0 -0 0 0 1 1 2 3 3
-1 -1 -1 -1 -1 -1 -1 -1 -2 -2 -3 -3 -2 -2 -2 -2 -2 -2 -2 -1 -1 -1 -0 0 1 1 2 3 4 4 5 5 4 3 2 3 3 3 3 3 2 2 2 2 1 1 1 1 1 1 1 0 0 0 0 0 0 0 -0 -0 -0 -0 -0 -0 -0 0 1 1 2
-0 -0 -0 -0 -0 -1 -1 -2 -2 -3 -3 -3 -2 -2 -2 -2 -2 -2 -2 -2 -2 -1 -1 -0 0 1 1 2 2 2 3 3 3 2 2 2 3 4 4 4 3 3 2 1 1 1 0 0 0 0 0 0 0 0 1 1 1 0 0 -0 -0 -0 -1 -1 -1 -1 -0 -0 -0
-0 -0 -0 -0 -1 -1 -2 -2 -2 -2 -2 -2 -2 -2 -2 -1 -1 -1 -1 -1 -1 -1 -1 -0 0 1 1 0 -0 -0 1 1 2 2 2 2 3 3 3 3 3 2 2 2 1 1 0 0 0 0 0 0 1 1 1 1 1 1 1 0 0 -0 -0 -1 -1 -1 -1 -1 -1
-0 -0 -1 -1 -2 -2 -2 -2 -2 -2 -2 -2 -2 -2 -1 -1 -1 -1 -1 -1 -1 -1 -1 -0 0 0 -0 -1 -1 -1 -0 0 1 2 2 3 2 2 2 2 2 2 2 2 2 1 1 1 1 1 1 1 1 1 1 1 1 1 1 1 1 1 0 -0 -0 -1 -1 -1 -1
-1 -1 -2 -2 -2 -2 -2 -2 -2 -2 -2 -2 -2 -1 -0 -0 -0 -1 -1 -1 -1 -1 -1 -0 -0 -1 -1 -1 -1 -1 -0 1 2 2 3 3 2 2 2 2 2 2 1 1 1 1 1 1 1 1 1 1 1 1 1 1 1 1 1 1 1 1 0 -0 -0 -0 -0 -0 -0
-1 -2 -2 -3 -3 -2 -2 -1 -1 -2 -2 -1 -1 -0 -0 -0 -1 -1 -1 -2 -1 -1 -1 -1 -1 -1 -1 -1 -0 0 1 2 2 3 3 2 2 1 1 1 1 1 1 0 0 0 0 0 0 0 0 1 1 1 1 1 0 0 1 1 1 1 0 0 0 0 0 0 -0
Height
5624 5620 5616 5612 5608 5604 5600 5596 5592 5588 5584 5580 5576 5571 5567 5562 5558 5553 5549 5544 5539 5534 5530 5525 5521 5517 5512 5509 5506 5502 5499 5496 5493 5490 5487 5485 5482 5481 5479 5477 5477 5476 5476 5475 5475 5476 5476 5477 5477 5478 5479 5480 5482 5485 5490 5495 5501 5507 5512 5518 5524 5530 5535 5539 5544 5548 5552 5556 5559
5623 5619 5616 5612 5608 5604 5600 5596 5592 5588 5584 5580 5576 5572 5567 5563 5559 5554 5549 5544 5539 5535 5530 5526 5521 5517 5513 5509 5506 5502 5499 5496 5493 5490 5488 5485 5483 5481 5480 5478 5477 5477 5476 5476 5476 5476 5477 5477 5478 5479 5480 5482 5484 5487 5491 5496 5502 5508 5514 5520 5525 5530 5535 5539 5543 5547 5551 5555 5558
5623 5619 5616 5612 5608 5604 5601 5597 5593 5589 5585 5581 5576 5572 5568 5564 5559 5554 5549 5544 5540 5535 5531 5526 5522 5518 5514 5510 5507 5503 5500 5497 5493 5491 5488 5486 5484 5482 5481 5479 5478 5477 5477 5476 5477 5478 5479 5479 5480 5481 5482 5484 5487 5491 5495 5500 5506 5512 5518 5523 5527 5531 5535 5540 5543 5547 5551 5554 5558
5623 5619 5616 5612 5609 5605 5602 5598 5594 5590 5586 5581 5577 5573 5569 5565 5560 5555 5550 5545 5540 5536 5531 5527 5522 5518 5515 5511 5507 5504 5501 5497 5494 5492 5489 5487 5485 5483 5482 5481 5479 5479 5478 5478 5479 5480 5481 5481 5482 5483 5485 5488 5491 5495 5500 5505 5511 5517 5522 5527 5529 5532 5536 5540 5544 5547 5551 5554 5558
5623 5620 5617 5613 5610 5606 5602 5599 5595 5591 5587 5582 5578 5574 5570 5566 5561 5556 5551 5546 5542 5537 5532 5528 5524 5520 5516 5512 5509 5506 5502 5499 5496 5493 5491 5489 5487 5485 5484 5482 5482 5481 5481 5480 5480 5481 5482 5482 5484 5486 5489 5492 5495 5499 5505 5511 5515 5521 5525 5527 5531 5534 5537 5541 5544 5548 5552 5554 5557
5624 5621 5617 5614 5611 5607 5603 5600 5596 5592 5587 5583 5579 5576 5572 5567 5562 5557 5553 5548 5543 5539 5534 5530 5526 5522 5518 5514 5511 5508 5505 5502 5498 5496 5493 5491 5490 5488 5486 5485 5484 5483 5483 5483 5483 5483 5485 5486 5488 5490 5493 5496 5499 5505 5510 5515 5519 5524 5528 5531 5533 5535 5539 5542 5546 5549 5552 5554 5556
5625 5622 5618 5615 5612 5608 5605 5601 5597 5593 5589 5585 5581 5577 5573 5568 5564 5559 5555 5550 5545 5541 5536 5532 5528 5524 5521 5517 5514 5511 5508 5505 5502 5499 5497 5495 5493 5492 5490 5488 5487 5487 5487 5487 5487 5488 5489 5490 5492 5495 5497 5501 5506 5511 5515 5519 5523 5527 5531 5534 5535 5537 5541 5545 5547 5549 5551 5554 5557
5626 5622 5619 5616 5613 5609 5606 5602 5598 5594 5590 5586 5582 5578 5574 5570 5565 5561 5556 5552 5547 5543 5539 5535 5531 5527 5524 5520 5517 5514 5511 5508 5506 5503 5501 5499 5497 5496 5494 5493 5492 5492 5491 5491 5492 5492 5494 5495 5497 5500 5503 5507 5512 5516 5519 5522 5526 5531 5535 5535 5538 5541 5544 5546 5548 5550 5552 5555 5557
5627 5623 5620 5617 5614 5611 5607 5603 5600 5596 5592 5588 5584 5580 5576 5571 5567 5562 5558 5554 5550 5546 5542 5538 5534 5530 5527 5524 5521 5518 5515 5512 5509 5507 5505 5503 5502 5500 5499 5498 5497 5496 5496 5496 5497 5498 5499 5501 5502 5506 5510 5513 5517 5520 5523 5526 5532 5538 5541 5540 5541 5542 5544 5547 5549 5551 5553 5556 5558
5628 5625 5622 5618 5615 5612 5608 5605 5601 5597 5593 5589 5586 5581 5577 5573 5569 5565 5560 5556 5552 5548 5544 5541 5537 5533 5530 5527 5524 5521 5518 5516 5514 5512 5509 5507 5506 5505 5503 5502 5502 5502 5502 5502 5503 5504 5505 5507 5509 5512 5515 5517 5521 5525 5529 5532 5537 5541 5543 5542 5542 5544 5546 5547 5549 5552 5555 5557 5560
5629 5626 5623 5619 5616 5612 5609 5606 5602 5599 5595 5591 5587 5583 5579 5575 5571 5567 5563 5558 5555 5551 5547 5543 5540 5537 5533 5531 5528 5525 5522 5520 5518 5516 5514 5512 5511 5510 5509 5508 5508 5508 5508 5508 5509 5510 5511 5513 5516 5517 5520 5523 5526 5530 5533 5536 5539 5541 5542 5543 5544 5545 5547 5549 5551 5554 5557 5560 5562
5631 5627 5624 5621 5617 5613 5610 5607 5604 5600 5597 5593 5589 5586 5582 5577 5573 5570 5566 5562 5558 5554 5550 5547 5543 5540 5537 5534 5532 5529 5527 5525 5523 5521 5520 5518 5517 5516 5515 5515 5514 5514 5514 5514 5515 5516 5517 5520 5521 5523 5526 5528 5532 5534 5537 5538 5539 5541 5542 5544 5545 5547 5549 5551 5553 5556 5558 5560 5562
5632 5629 5626 5622 5618 5615 5612 5608 5605 5602 5599 5595 5592 5588 5584 5580 5576 5572 5569 5565 5562 5557 5554 5550 5547 5544 5541 5538 5536 5533 5531 5529 5527 5526 5525 5524 5523 5522 5521 5520 5520 5520 5520 5520 5522 5523 5524 5525 5527 5529 5532 5535 5537 5539 5539 5540 5541 5542 5544 5545 5547 5549 5551 5553 5555 5557 5559 5561 5563
5634 5631 5627 5624 5620 5617 5613 5610 5607 5604 5601 5597 5594 5590 5586 5582 5579 5576 5572 5569 5565 5562 5558 5554 5551 5548 5545 5542 5540 5537 5535 5533 5532 5531 5530 5529 5528 5527 5526 5526 5525 5526 5526 5527 5528 5528 5529 5531 5532 5534 5537 5539 5540 5541 5541 5542 5543 5545 5546 5548 5549 5551 5553 5555 5557 5559 5561 5563 5565
5635 5632 5629 5625 5622 5618 5615 5612 5608 5605 5602 5599 5596 5592 5589 5585 5582 5578 5575 5572 5569 5566 5562 5559 5555 5552 5549 5547 5545 5542 5540 5538 5536 5535 5534 5533 5532 5532 5532 5531 5531 5532 5533 5533 5533 5534 5535 5536 5536 5537 5539 5540 5541 5542 5543 5544 5546 5547 5549 5550 5552 5553 5555 5557 5559 5561 5562 5564 5566
5637 5634 5631 5627 5624 5621 5617 5614 5610 5607 5604 5602 5598 5595 5591 5588 5584 5581 5578 5575 5572 5569 5566 5563 5560 5557 5554 5552 5550 5547 5545 5543 5541 5540 5538 5537 5537 5537 5537 5536 5537 5537 5538 5538 5539 5539 5539 5539 5540 5541 5542 5542 5543 5544 5546 5547 5548 5550 5551 5552 5554 5556 5557 5559 5561 5563 5564 5566 5567
5638 5635 5632 5629 5626 5623 5619 5616 5612 5609 5606 5603 5600 5597 5594 5591 5587 5584 5581 5578 5575 5572 5570 5567 5564 5562 5560 5557 5555 5552 5550 5548 5547 5545 5544 5543 5542 5542 5542 5541 5542 5542 5543 5543 5543 5543 5543 5543 5544 5545 5545 5545 5546 5547 5549 5550 5551 5552 5554 5555 5557 5558 5560 5561 5563 5564 5566 5567 5569
5639 5637 5634 5631 5628 5625 5622 5618 5615 5611 5608 5605 5602 5599 5596 5593 5590 5587 5584 5581 5578 5576 5573 5571 5568 5566 5564 5561 5559 5557 5555 5553 5552 5551 5549 5548 5548 5547 5547 5547 5546 5546 5546 5547 5546 5546 5547 5547 5548 5548 5548 5548 5549 5550 5552 5553 5554 5555 5557 5558 5559 5560 5562 5563 5564 5566 5567 5569 5571
5640 5638 5635 5632 5630 5627 5624 5621 5617 5613 5610 5607 5604 5601 5598 5595 5592 5589 5587 5584 5581 5579 5576 5574 5572 5569 5567 5565 5563 5561 5559 5558 5557 5555 5554 5553 5552 5552 5551 5551 5550 5550 5549 5549 5549 5549 5550 5550 5550 5551 5551 5552 5552 5553 5554 5556 5557 5558 5559 5560 5561 5562 5564 5565 5566 5567 5568 5570 5572
5641 5639 5637 5634 5631 5629 5626 5622 5619 5616 5612 5609 5606 5603 5600 5597 5595 5592 5589 5587 5584 5582 5579 5577 5574 5572 5570 5568 5566 5565 5563 5562 5560 5559 5558 5557 5556 5556 5555 5555 5554 5553 5552 5552 5552 5552 5553 5553 5553 5554 5554 5555 5556 5557 5557 5558 5559 5560 5562 5562 5564 5565 5566 5567 5568 5569 5570 5571 5572
5642 5640 5637 5635 5632 5630 5627 5624 5621 5618 5615 5612 5608 5605 5602 5600 5597 5594 5592 5589 5587 5584 5582 5580 5578 5576 5573 5572 5570 5568 5567 5565 5564 5563 5562 5561 5560 5560 5559 5558 5558 5557 5557 5557 5556 5557 5557 5557 5557 5557 5558 5559 5559 5560 5561 5562 5563 5564 5565 5566 5567 5568 5569 5570 5571 5572 5572 5573 5574
5643 5641 5638 5636 5634 5631 5628 5626 5623 5620 5617 5614 5611 5608 5605 5602 5600 5597 5594 5592 5589 5587 5585 5583 5581 5579 5577 5575 5573 5572 5570 5568 5567 5567 5566 5565 5564 5563 5563 5562 5562 5561 5561 5561 5561 5560 5560 5561 5561 5561 5562 5562 5563 5564 5564 5565 5566 5567 5568 5569 5570 5570 5571 5572 5573 5574 5574 5575 5576
5643 5641 5639 5637 5635 5632 5630 5627 5625 5622 5619 5617 5614 5611 5608 5605 5602 5600 5597 5595 5592 5590 5588 5586 5584 5582 5580 5578 5577 5575 5573 5572 5571 5570 5569 5568 5567 5567 5566 5566 5566 5565 5565 5565 5565 5565 5565 5565 5565 5565 5566 5566 5567 5567 5568 5568 5569 5570 5571 5572 5572 5573 5574 5575 5575 5575 5576 5576 5577
5644 5642 5640 5638 5636 5633 5631 5628 5626 5624 5621 5619 5616 5614 5611 5608 5605 5602 5600 5598 5596 5593 5591 5589 5587 5585 5583 5581 5580 5578 5577 5576 5574 5573 5572 5572 5571 5571 5570 5570 5570 5570 5569 5569 5569 5569 5569 5569 5569 5569 5569 5570 5570 5571 5571 5571 5572 5572 5573 5574 5574 5575 5576 5577 5577 5577 5578 5578 5578
5644 5642 5641 5638 5637 5634 5632 5630 5627 5625 5623 5621 5618 5616 5613 5611 5608 5606 5603 5601 5599 5597 5595 5592 5591 5589 5587 5585 5583 5582 5580 5579 5578 5577 5577 5576 5575 5575 5574 5574 5574 5574 5573 5573 5573 5573 5573 5573 5573 5573 5573 5573 5573 5573 5574 5574 5574 5575 5575 5576 5577 5577 5577 5578 5578 5578 5578 5579 5579
5645 5643 5641 5639 5637 5636 5633 5631 5629 5627 5625 5622 5620 5618 5615 5613 5611 5608 5606 5604 5602 5600 5598 5596 5594 5592 5591 5589 5587 5586 5584 5583 5582 5581 5581 5580 5579 5579 5578 5578 5578 5578 5577 5577 5577 5577 5577 5577 5577 5577 5577 5576 5576 5576 5577 5577 5577 5577 5578 5578 5578 5579 5579 5579 5579 5579 5579 5579 5579
5646 5644 5642 5640 5638 5637 5635 5633 5631 5628 5627 5624 5622 5620 5617 5615 5613 5611 5609 5607 5605 5603 5601 5599 5597 5596 5594 5592 5591 5590 5588 5587 5586 5585 5585 5584 5583 5583 5582 5582 5582 5582 5581 5581 5581 5580 5580 5580 5581 5581 5580 5579 5579 5579 5579 5579 5579 5580 5580 5580 5580 5580 5580 5580 5581 5581 5581 5581 5580
5646 5645 5643 5642 5640 5638 5636 5634 5632 5630 5628 5626 5624 5622 5620 5617 5615 5613 5611 5609 5607 5606 5604 5602 5600 5599 5597 5596 5594 5593 5592 5591 5590 5589 5588 5587 5587 5587 5586 5586 5585 5585 5585 5584 5584 5584 5584 5584 5584 5584 5584 5583 5582 5582 5582 5582 5582 5582 5582 5582 5582 5582 5582 5582 5582 5582 5582 5582 5582
5647 5646 5644 5642 5641 5639 5637 5636 5634 5632 5630 5628 5626 5624 5622 5619 5617 5616 5614 5612 5610 5608 5607 5605 5603 5602 5600 5599 5598 5597 5595 5594 5593 5592 5592 5591 5590 5590 5589 5589 5588 5587 5587 5586 5586 5585 5585 5585 5585 5585 5585 5584 5583 5583 5583 5584 5585 5585 5585 5585 5584 5583 5583 5583 5583 5583 5583 5583 5582
5648 5647 5645 5644 5642 5641 5639 5637 5635 5633 5632 5630 5628 5626 5624 5622 5620 5618 5616 5615 5613 5612 5610 5608 5606 5605 5603 5602 5601 5600 5599 5598 5597 5596 5595 5594 5593 5592 5592 5592 5591 5590 5590 5589 5588 5587 5587 5587 5586 5586 5586 5586 5586 5585 5586 5586 5586 5587 5587 5587 5586 5585 5585 5585 5584 5584 5584 5583 5582
5649 5648 5647 5645 5643 5642 5640 5639 5637 5635 5633 5631 5629 5628 5626 5624 5622 5621 5619 5617 5616 5614 5612 5611 5609 5608 5607 5605 5604 5603 5602 5601 5600 5599 5598 5597 5596 5595 5594 5593 5593 5592 5592 5591 5591 5590 5590 5589 5589 5589 5588 5588 5588 5588 5588 5588 5588 5588 5588 5588 5588 5587 5587 5586 5586 5585 5584 5583 5583
5651 5649 5648 5646 5645 5643 5642 5640 5638 5637 5635 5633 5631 5629 5628 5626 5625 5623 5622 5620 5618 5617 5615 5613 5612 5610 5609 5608 5607 5606 5604 5603 5602 5602 5601 5600 5599 5597 5597 5596 5595 5594 5593 5593 5592 5592 5592 5591 5591 5591 5590 5590 5590 5590 5590 5590 5589 5589 5589 5589 5588 5588 5587 5587 5586 5585 5584 5583 5583
5652 5650 5649 5647 5646 5645 5643 5642 5640 5638 5636 5634 5632 5631 5630 5628 5627 5625 5624 5622 5621 5619 5617 5616 5614 5613 5612 5611 5609 5608 5607 5606 5605 5604 5603 5602 5601 5600 5599 5598 5597 5597 5596 5595 5594 5594 5593 5593 5593 5593 5592 5592 5592 5592 5592 5591 5591 5590 5590 5589 5588 5588 5587 5587 5586 5585 5585 5584 5583
5653 5652 5650 5649 5647 5646 5644 5643 5641 5639 5637 5636 5634 5633 5631 5630 5628 5627 5626 5624 5623 5621 5620 5618 5617 5616 5614 5613 5612 5611 5609 5608 5607 5606 5605 5604 5603 5602 5602 5601 5600 5600 5599 5598 5597 5597 5596 5596 5595 5595 5595 5595 5594 5594 5593 5593 5592 5592 5591 5590 5589 5588 5588 5587 5586 5586 5585 5584 5583
5655 5653 5652 5650 5649 5647 5646 5644 5642 5641 5639 5637 5636 5634 5633 5631 5630 5629 5627 5626 5625 5623 5622 5621 5619 5618 5617 5616 5615 5613 5612 5611 5610 5608 5607 5607 5606 5605 5604 5604 5603 5602 5602 5601 5600 5600 5599 5599 5598 5597 5597 5597 5596 5596 5595 5594 5593 5593 5592 5591 5590 5589 5588 5587 5587 5586 5585 5584 5584
5656 5655 5653 5652 5650 5649 5647 5646 5644 5642 5640 5639 5637 5636 5634 5633 5632 5630 5629 5628 5627 5625 5624 5623 5622 5620 5619 5618 5617 5616 5615 5614 5613 5612 5610 5609 5608 5607 5607 5606 5606 5605 5604 5604 5603 5602 5602 5601 5601 5600 5599 5599 5598 5597 5597 5596 5595 5594 5593 5592 5591 5590 5589 5588 5587 5586 5585 5584 5583
5657 5656 5655 5653 5652 5650 5649 5647 5645 5643 5642 5641 5639 5637 5636 5635 5633 5632 5631 5629 5628 5627 5626 5625 5624 5623 5622 5620 5619 5618 5617 5616 5615 5614 5613 5612 5611 5610 5610 5609 5608 5607 5606 5606 5605 5604 5603 5603 5602 5602 5601 5600 5599 5598 5597 5597 5596 5595 5594 5592 5592 5590 5589 5588 5587 5586 5585 5584 5583
5659 5657 5656 5655 5653 5652 5650 5648 5647 5645 5644 5642 5641 5639 5638 5637 5635 5634 5632 5631 5630 5629 5628 5627 5626 5625 5624 5622 5621 5620 5619 5618 5617 5617 5616 5615 5614 5613 5612 5611 5610 5609 5608 5607 5607 5606 5605 5604 5603 5602 5602 5601 5600 5599 5598 5597 5596 5595 5594 5593 5592 5591 5589 5588 5587 5586 5585 5584 5583
5660 5659 5657 5656 5655 5653 5652 5650 5649 5647 5646 5644 5643 5641 5640 5639 5637 5636 5635 5633 5632 5631 5630 5629 5628 5627 5626 5624 5623 5622 5621 5620 5620 5619 5618 5617 5616 5615 5614 5613 5612 5612 5610 5609 5608 5607 5607 5606 5604 5604 5603 5602 5601 5600 5599 5598 5597 5596 5595 5593 5592 5591 5590 5588 5587 5586 5584 5583 5582
5662 5660 5659 5657 5656 5654 5653 5652 5650 5649 5647 5646 5645 5643 5642 5641 5639 5638 5637 5636 5634 5633 5632 5632 5630 5629 5628 5627 5626 5625 5624 5623 5622 5621 5621 5620 5618 5617 5617 5616 5615 5614 5612 5612 5610 5609 5608 5607 5606 5605 5604 5603 5602 5601 5600 5598 5597 5597 5595 5594 5592 5591 5590 5588 5587 5586 5584 5583 5582
5663 5662 5660 5659 5657 5656 5655 5654 5652 5651 5649 5648 5647 5645 5644 5643 5642 5640 5639 5638 5637 5636 5635 5633 5632 5631 5630 5629 5628 5627 5627 5626 5625 5624 5623 5622 5621 5620 5619 5617 5617 5616 5614 5613 5612 5611 5610 5609 5607 5606 5605 5604 5603 5602 5600 5599 5598 5597 5596 5594 5593 5592 5590 5588 5587 5586 5584 5583 5582